Time,TemperatureF,DewpointF,PressureIn,WindDirection,WindDirectionDegrees,WindSpeedMPH,WindSpeedGustMPH,Humidity,HourlyPrecipIn,Conditions,Clouds,dailyrainin,SoftwareType,DateUTC
2013-03-26 00:00:00,31.8,31.8,29.03,North,354,6.0,7.0,100,0.00,,OVC050,0.00,VWS V14.01,2013-03-26 05:00:00,
2013-03-26 00:05:00,31.8,31.8,29.03,NNW,345,6.0,11.0,100,0.00,,OVC050,0.00,VWS V14.01,2013-03-26 05:05:00,
2013-03-26 00:10:00,31.7,31.7,29.03,North,358,4.0,4.0,100,0.00,,OVC050,0.00,VWS V14.01,2013-03-26 05:10:00,
2013-03-26 00:15:00,31.7,31.7,29.03,NNE,16,2.0,9.0,100,0.00,,OVC050,0.00,VWS V14.01,2013-03-26 05:15:00,
2013-03-26 00:20:00,31.6,31.6,29.03,North,0,7.0,7.0,100,0.00,,OVC050,0.00,VWS V14.01,2013-03-26 05:20:00,
2013-03-26 00:25:00,31.6,31.6,29.03,North,8,7.0,12.0,100,0.00,,OVC050,0.00,VWS V14.01,2013-03-26 05:25:00,
2013-03-26 00:30:00,31.6,31.6,29.03,North,5,4.0,6.0,100,0.00,,OVC050,0.00,VWS V14.01,2013-03-26 05:30:00,
2013-03-26 00:35:00,31.5,31.5,29.04,NNW,342,10.0,10.0,100,0.00,,OVC050,0.00,VWS V14.01,2013-03-26 05:35:00,
2013-03-26 00:40:00,31.4,31.4,29.03,NNW,341,7.0,7.0,100,0.00,,OVC050,0.00,VWS V14.01,2013-03-26 05:40:00,
2013-03-26 00:45:00,31.4,31.4,29.03,NNW,339,5.0,10.0,100,0.00,,OVC050,0.00,VWS V14.01,2013-03-26 05:45:00,
2013-03-26 00:50:00,31.3,31.3,29.04,North,5,5.0,6.0,100,0.00,,OVC050,0.00,VWS V14.01,2013-03-26 05:50:00,
2013-03-26 00:55:00,31.2,31.2,29.04,North,356,4.0,11.0,100,0.00,,OVC050,0.00,VWS V14.01,2013-03-26 05:55:00,
2013-03-26 01:00:00,31.2,31.2,29.04,NNE,17,3.0,4.0,100,0.00,,OVC050,0.00,VWS V14.01,2013-03-26 06:00:00,
2013-03-26 01:05:00,31.1,31.1,29.04,North,6,7.0,8.0,100,0.00,,OVC050,0.00,VWS V14.01,2013-03-26 06:05:00,
2013-03-26 01:10:00,31.1,31.1,29.04,North,6,3.0,5.0,100,0.00,,OVC050,0.00,VWS V14.01,2013-03-26 06:10:00,
2013-03-26 01:15:00,31.0,31.0,29.04,NNW,338,8.0,11.0,100,0.00,,OVC050,0.00,VWS V14.01,2013-03-26 06:15:00,
2013-03-26 01:20:00,31.0,31.0,29.04,North,2,5.0,7.0,100,0.00,,OVC050,0.00,VWS V14.01,2013-03-26 06:20:00,
2013-03-26 01:25:00,30.9,30.9,29.04,North,351,6.0,9.0,100,0.00,,OVC050,0.00,VWS V14.01,2013-03-26 06:25:00,
2013-03-26 01:30:00,30.9,30.9,29.04,NNE,22,3.0,5.0,100,0.00,,OVC050,0.00,VWS V14.01,2013-03-26 06:30:00,
2013-03-26 01:35:00,30.8,30.8,29.04,North,2,4.0,10.0,100,0.00,,OVC055,0.00,VWS V14.01,2013-03-26 06:35:00,
2013-03-26 01:40:00,30.8,30.8,29.04,North,0,3.0,5.0,100,0.00,,OVC055,0.00,VWS V14.01,2013-03-26 06:40:00,
2013-03-26 01:45:00,30.7,30.7,29.05,NNE,16,3.0,10.0,100,0.00,,OVC055,0.00,VWS V14.01,2013-03-26 06:45:00,
2013-03-26 01:50:00,30.6,30.6,29.04,North,9,5.0,5.0,100,0.00,,OVC055,0.00,VWS V14.01,2013-03-26 06:50:00,
2013-03-26 01:55:00,30.6,30.6,29.05,NNE,13,2.0,8.0,100,0.00,,OVC055,0.00,VWS V14.01,2013-03-26 06:55:00,
2013-03-26 02:00:00,30.5,30.5,29.05,NNE,12,4.0,8.0,100,0.00,,OVC055,0.00,VWS V14.01,2013-03-26 07:00:00,
2013-03-26 02:05:00,30.4,30.4,29.04,North,2,4.0,9.0,100,0.00,,OVC055,0.00,VWS V14.01,2013-03-26 07:05:00,
2013-03-26 02:10:00,30.4,30.4,29.05,North,2,3.0,6.0,100,0.00,,OVC055,0.00,VWS V14.01,2013-03-26 07:10:00,
2013-03-26 02:15:00,30.4,30.4,29.05,North,7,3.0,7.0,100,0.00,,OVC055,0.00,VWS V14.01,2013-03-26 07:15:00,
2013-03-26 02:20:00,30.4,30.4,29.05,North,1,4.0,4.0,100,0.00,,OVC055,0.00,VWS V14.01,2013-03-26 07:20:00,
2013-03-26 02:25:00,30.3,30.3,29.05,North,359,4.0,6.0,100,0.00,,OVC055,0.00,VWS V14.01,2013-03-26 07:25:00,
2013-03-26 02:30:00,30.2,30.2,29.05,North,355,5.0,6.0,100,0.00,,OVC055,0.00,VWS V14.01,2013-03-26 07:30:00,
2013-03-26 02:35:00,30.2,30.2,29.05,North,10,5.0,7.0,100,0.00,,OVC055,0.00,VWS V14.01,2013-03-26 07:35:00,
2013-03-26 02:40:00,30.1,30.1,29.05,NNW,327,4.0,7.0,100,0.00,,OVC033,0.00,VWS V14.01,2013-03-26 07:40:00,
2013-03-26 02:45:00,30.1,30.1,29.04,NNW,340,5.0,6.0,100,0.00,,OVC033,0.00,VWS V14.01,2013-03-26 07:45:00,
2013-03-26 02:50:00,30.1,30.1,29.05,North,358,3.0,6.0,100,0.00,,OVC033,0.00,VWS V14.01,2013-03-26 07:50:00,
2013-03-26 02:55:00,30.0,30.0,29.05,North,0,2.0,7.0,100,0.00,,OVC033,0.00,VWS V14.01,2013-03-26 07:55:00,
2013-03-26 03:00:00,30.0,30.0,29.05,North,0,3.0,7.0,100,0.00,,OVC033,0.00,VWS V14.01,2013-03-26 08:00:00,
2013-03-26 03:05:00,29.9,29.9,29.05,North,3,5.0,6.0,100,0.00,,OVC033,0.00,VWS V14.01,2013-03-26 08:05:00,
2013-03-26 03:10:00,29.9,29.9,29.05,NNW,332,4.0,8.0,100,0.00,,OVC033,0.00,VWS V14.01,2013-03-26 08:10:00,
2013-03-26 03:15:00,29.9,29.9,29.05,North,350,3.0,6.0,100,0.00,,OVC033,0.00,VWS V14.01,2013-03-26 08:15:00,
2013-03-26 03:20:00,29.9,29.9,29.05,North,350,3.0,6.0,100,0.00,,OVC033,0.00,VWS V14.01,2013-03-26 08:20:00,
2013-03-26 03:25:00,29.8,29.8,29.05,NNW,345,5.0,6.0,100,0.00,,OVC033,0.00,VWS V14.01,2013-03-26 08:25:00,
2013-03-26 03:30:00,29.8,29.8,29.05,North,0,0.0,6.0,100,0.00,,OVC033,0.00,VWS V14.01,2013-03-26 08:30:00,
2013-03-26 03:35:00,29.7,29.7,29.05,NNW,343,4.0,5.0,100,0.00,,OVC033,0.00,VWS V14.01,2013-03-26 08:35:00,
2013-03-26 03:40:00,29.7,29.7,29.05,NNW,338,5.0,6.0,100,0.00,,OVC049,0.00,VWS V14.01,2013-03-26 08:40:00,
2013-03-26 03:45:00,29.7,29.7,29.05,North,358,2.0,6.0,100,0.00,,OVC049,0.00,VWS V14.01,2013-03-26 08:45:00,
2013-03-26 03:50:00,29.6,29.6,29.05,North,351,4.0,6.0,100,0.00,,OVC049,0.00,VWS V14.01,2013-03-26 08:50:00,
2013-03-26 03:55:00,29.5,29.5,29.05,North,3,6.0,6.0,100,0.00,,OVC049,0.00,VWS V14.01,2013-03-26 08:55:00,
2013-03-26 04:00:00,29.6,29.6,29.05,North,4,3.0,6.0,100,0.00,,OVC049,0.00,VWS V14.01,2013-03-26 09:00:00,
2013-03-26 04:05:00,29.5,29.5,29.05,NNW,336,3.0,7.0,100,0.00,,OVC049,0.00,VWS V14.01,2013-03-26 09:05:00,
2013-03-26 04:10:00,29.6,29.6,29.05,NNW,333,2.0,7.0,100,0.00,,OVC049,0.00,VWS V14.01,2013-03-26 09:10:00,
2013-03-26 04:15:00,29.5,29.5,29.06,North,354,4.0,7.0,100,0.00,,OVC049,0.00,VWS V14.01,2013-03-26 09:15:00,
2013-03-26 04:20:00,29.5,29.5,29.06,North,354,2.0,7.0,100,0.00,,OVC049,0.00,VWS V14.01,2013-03-26 09:20:00,
2013-03-26 04:25:00,29.4,29.4,29.05,NNW,348,2.0,4.0,100,0.00,,OVC049,0.00,VWS V14.01,2013-03-26 09:25:00,
2013-03-26 04:30:00,29.4,29.4,29.06,NNW,331,5.0,5.0,100,0.00,,OVC049,0.00,VWS V14.01,2013-03-26 09:30:00,
2013-03-26 04:35:00,29.4,29.4,29.06,NW,319,5.0,5.0,100,0.00,,OVC049,0.00,VWS V14.01,2013-03-26 09:35:00,
2013-03-26 04:40:00,29.4,29.4,29.06,WNW,303,2.0,5.0,100,0.00,,OVC049,0.00,VWS V14.01,2013-03-26 09:40:00,
2013-03-26 04:45:00,29.3,29.3,29.06,NW,307,2.0,4.0,100,0.00,,OVC049,0.00,VWS V14.01,2013-03-26 09:45:00,
2013-03-26 04:50:00,29.3,29.3,29.06,NNW,327,3.0,6.0,100,0.00,,OVC049,0.00,VWS V14.01,2013-03-26 09:50:00,
2013-03-26 04:54:00,29.3,29.3,29.06,NW,305,3.0,5.0,100,0.00,,OVC049,0.00,VWS V14.01,2013-03-26 09:54:00,
2013-03-26 04:59:00,29.3,29.3,29.06,WNW,289,4.0,5.0,100,0.00,,OVC049,0.00,VWS V14.01,2013-03-26 09:59:00,
2013-03-26 05:04:00,29.3,29.3,29.06,NW,306,3.0,5.0,100,0.00,,OVC049,0.00,VWS V14.01,2013-03-26 10:04:00,
2013-03-26 05:09:00,29.2,29.2,29.06,NW,326,4.0,6.0,100,0.00,,OVC049,0.00,VWS V14.01,2013-03-26 10:09:00,
2013-03-26 05:14:00,29.2,29.2,29.06,North,353,2.0,5.0,100,0.00,,OVC049,0.00,VWS V14.01,2013-03-26 10:14:00,
2013-03-26 05:19:00,29.3,29.3,29.06,NNW,332,4.0,5.0,100,0.00,,OVC049,0.00,VWS V14.01,2013-03-26 10:19:00,
2013-03-26 05:24:00,29.3,29.3,29.06,NW,321,4.0,5.0,100,0.00,,OVC049,0.00,VWS V14.01,2013-03-26 10:24:00,
2013-03-26 05:29:00,29.2,29.2,29.07,NW,324,2.0,5.0,100,0.00,,OVC049,0.00,VWS V14.01,2013-03-26 10:29:00,
2013-03-26 05:34:00,29.2,29.2,29.07,NW,323,0.0,4.0,100,0.00,,OVC049,0.00,VWS V14.01,2013-03-26 10:34:00,
2013-03-26 05:39:00,29.2,29.2,29.07,NW,319,1.0,4.0,100,0.00,,OVC049,0.00,VWS V14.01,2013-03-26 10:39:00,
2013-03-26 05:44:00,29.1,29.1,29.07,NW,306,3.0,4.0,100,0.00,,OVC049,0.00,VWS V14.01,2013-03-26 10:44:00,
2013-03-26 05:49:00,29.1,29.1,29.07,North,355,3.0,5.0,100,0.00,,OVC049,0.00,VWS V14.01,2013-03-26 10:49:00,
2013-03-26 05:54:00,29.1,29.1,29.08,WNW,303,3.0,4.0,100,0.00,,OVC049,0.00,VWS V14.01,2013-03-26 10:54:00,
2013-03-26 05:59:00,29.1,29.1,29.08,NNW,336,0.0,4.0,100,0.00,,OVC049,0.00,VWS V14.01,2013-03-26 10:59:00,
2013-03-26 06:04:00,29.0,29.0,29.08,North,350,0.0,2.0,100,0.00,,OVC049,0.00,VWS V14.01,2013-03-26 11:04:00,
2013-03-26 06:09:00,29.0,29.0,29.08,North,349,0.0,3.0,100,0.00,,OVC049,0.00,VWS V14.01,2013-03-26 11:09:00,
2013-03-26 06:14:00,29.0,29.0,29.08,North,349,0.0,2.0,100,0.00,,OVC049,0.00,VWS V14.01,2013-03-26 11:14:00,
2013-03-26 06:19:00,28.9,28.9,29.08,North,0,1.0,3.0,100,0.00,,OVC049,0.00,VWS V14.01,2013-03-26 11:19:00,
2013-03-26 06:24:00,28.9,28.9,29.08,North,8,2.0,3.0,100,0.00,,OVC049,0.00,VWS V14.01,2013-03-26 11:24:00,
2013-03-26 06:29:00,28.9,28.9,29.08,North,358,2.0,3.0,100,0.00,,OVC049,0.00,VWS V14.01,2013-03-26 11:29:00,
2013-03-26 06:34:00,28.9,28.9,29.09,NNW,338,3.0,5.0,100,0.00,,OVC049,0.00,VWS V14.01,2013-03-26 11:34:00,
2013-03-26 06:39:00,28.8,28.8,29.09,NNW,338,1.0,5.0,100,0.00,,OVC047,0.00,VWS V14.01,2013-03-26 11:39:00,
2013-03-26 06:44:00,28.8,28.8,29.09,NNW,338,0.0,2.0,100,0.00,,OVC047,0.00,VWS V14.01,2013-03-26 11:44:00,
2013-03-26 06:49:00,28.7,28.7,29.09,NNW,338,2.0,3.0,100,0.00,,OVC047,0.00,VWS V14.01,2013-03-26 11:49:00,
2013-03-26 06:54:00,28.7,28.7,29.09,NNW,343,2.0,4.0,100,0.00,,OVC047,0.00,VWS V14.01,2013-03-26 11:54:00,
2013-03-26 06:59:00,28.7,28.7,29.09,North,0,3.0,5.0,100,0.00,,OVC047,0.00,VWS V14.01,2013-03-26 11:59:00,
2013-03-26 07:04:00,28.7,28.7,29.09,NNW,330,5.0,7.0,100,0.00,,OVC047,0.00,VWS V14.01,2013-03-26 12:04:00,
2013-03-26 07:09:00,28.7,28.7,29.09,NW,314,4.0,7.0,100,0.00,,OVC047,0.00,VWS V14.01,2013-03-26 12:09:00,
2013-03-26 07:14:00,28.7,28.7,29.09,North,0,2.0,6.0,100,0.00,,OVC047,0.00,VWS V14.01,2013-03-26 12:14:00,
2013-03-26 07:19:00,28.7,28.7,29.10,NW,317,4.0,6.0,100,0.00,,OVC047,0.00,VWS V14.01,2013-03-26 12:19:00,
2013-03-26 07:24:00,28.7,28.7,29.09,WNW,295,3.0,5.0,100,0.00,,OVC047,0.00,VWS V14.01,2013-03-26 12:24:00,
2013-03-26 07:29:00,28.7,28.7,29.10,WNW,293,3.0,5.0,100,0.00,,OVC047,0.00,VWS V14.01,2013-03-26 12:29:00,
2013-03-26 07:34:00,28.7,28.7,29.10,NW,321,4.0,4.0,100,0.00,,OVC049,0.00,VWS V14.01,2013-03-26 12:34:00,
2013-03-26 07:39:00,28.7,28.7,29.10,NNW,337,2.0,5.0,100,0.00,,OVC049,0.00,VWS V14.01,2013-03-26 12:39:00,
2013-03-26 07:44:00,28.8,28.8,29.10,North,9,3.0,4.0,100,0.00,,OVC049,0.00,VWS V14.01,2013-03-26 12:44:00,
2013-03-26 07:49:00,28.9,28.9,29.10,North,11,3.0,6.0,100,0.00,,OVC049,0.00,VWS V14.01,2013-03-26 12:49:00,
2013-03-26 07:54:00,29.0,29.0,29.11,NNW,347,2.0,7.0,100,0.00,,OVC049,0.00,VWS V14.01,2013-03-26 12:54:00,
2013-03-26 07:59:00,29.1,29.1,29.11,North,1,3.0,7.0,100,0.00,,OVC049,0.00,VWS V14.01,2013-03-26 12:59:00,
2013-03-26 08:04:00,29.2,29.2,29.11,North,2,4.0,6.0,100,0.00,,OVC049,0.00,VWS V14.01,2013-03-26 13:04:00,
2013-03-26 08:09:00,29.3,29.3,29.11,North,4,5.0,7.0,100,0.00,,OVC049,0.00,VWS V14.01,2013-03-26 13:09:00,
2013-03-26 08:14:00,29.4,29.4,29.11,North,3,5.0,7.0,100,0.00,,OVC049,0.00,VWS V14.01,2013-03-26 13:14:00,
2013-03-26 08:19:00,29.5,29.5,29.12,North,355,2.0,8.0,100,0.00,,OVC049,0.00,VWS V14.01,2013-03-26 13:19:00,
2013-03-26 08:24:00,29.6,29.6,29.12,North,355,7.0,7.0,100,0.00,,OVC049,0.00,VWS V14.01,2013-03-26 13:24:00,
2013-03-26 08:29:00,29.8,29.8,29.12,North,2,7.0,8.0,100,0.00,,OVC049,0.00,VWS V14.01,2013-03-26 13:29:00,
2013-03-26 08:34:00,29.9,29.9,29.11,North,351,3.0,7.0,100,0.00,,OVC049,0.00,VWS V14.01,2013-03-26 13:34:00,
2013-03-26 08:39:00,30.1,30.1,29.12,NNW,348,4.0,10.0,100,0.00,,OVC049,0.00,VWS V14.01,2013-03-26 13:39:00,
2013-03-26 08:44:00,30.2,30.2,29.12,NNW,343,5.0,9.0,100,0.00,,OVC049,0.00,VWS V14.01,2013-03-26 13:44:00,
2013-03-26 08:49:00,30.3,30.3,29.12,North,354,4.0,9.0,100,0.00,,OVC049,0.00,VWS V14.01,2013-03-26 13:49:00,
2013-03-26 08:54:00,30.4,30.4,29.12,NNW,331,4.0,6.0,100,0.00,,OVC049,0.00,VWS V14.01,2013-03-26 13:54:00,
2013-03-26 08:59:00,30.6,30.6,29.12,North,353,5.0,7.0,100,0.00,,OVC049,0.00,VWS V14.01,2013-03-26 13:59:00,
2013-03-26 09:04:00,30.8,30.8,29.12,NNW,336,3.0,7.0,100,0.00,,OVC049,0.00,VWS V14.01,2013-03-26 14:04:00,
2013-03-26 09:09:00,30.9,30.9,29.12,NNW,332,5.0,8.0,100,0.00,,OVC049,0.00,VWS V14.01,2013-03-26 14:09:00,
2013-03-26 09:14:00,31.0,31.0,29.12,North,1,4.0,9.0,100,0.00,,OVC049,0.00,VWS V14.01,2013-03-26 14:14:00,
2013-03-26 09:19:00,31.3,31.3,29.12,North,6,0.0,9.0,100,0.00,,OVC049,0.00,VWS V14.01,2013-03-26 14:19:00,
2013-03-26 09:24:00,31.4,31.4,29.12,WNW,303,7.0,10.0,100,0.00,,OVC049,0.00,VWS V14.01,2013-03-26 14:24:00,
2013-03-26 09:29:00,31.5,31.5,29.12,North,357,3.0,10.0,100,0.00,,OVC049,0.00,VWS V14.01,2013-03-26 14:29:00,
2013-03-26 09:34:00,31.6,31.6,29.12,NW,320,5.0,8.0,100,0.00,,OVC049,0.00,VWS V14.01,2013-03-26 14:34:00,
2013-03-26 09:39:00,31.5,31.5,29.12,NW,321,8.0,10.0,100,0.00,,OVC055,0.00,VWS V14.01,2013-03-26 14:39:00,
2013-03-26 09:44:00,31.5,31.5,29.13,NW,322,9.0,12.0,100,0.00,,OVC055,0.00,VWS V14.01,2013-03-26 14:44:00,
2013-03-26 09:49:00,31.4,31.4,29.13,NNW,344,0.0,12.0,100,0.00,,OVC055,0.00,VWS V14.01,2013-03-26 14:49:00,
2013-03-26 09:54:00,31.6,31.6,29.12,NNE,12,3.0,8.0,100,0.00,,OVC055,0.00,VWS V14.01,2013-03-26 14:54:00,
2013-03-26 09:59:00,31.9,31.9,29.12,North,355,2.0,8.0,100,0.00,,OVC055,0.00,VWS V14.01,2013-03-26 14:59:00,
2013-03-26 10:04:00,32.1,32.1,29.13,NNW,341,0.0,7.0,100,0.00,,OVC055,0.00,VWS V14.01,2013-03-26 15:04:00,
2013-03-26 10:09:00,32.3,32.3,29.12,West,280,6.0,7.0,100,0.00,,OVC055,0.00,VWS V14.01,2013-03-26 15:09:00,
2013-03-26 10:14:00,32.5,32.5,29.13,NW,314,3.0,6.0,100,0.00,,OVC055,0.00,VWS V14.01,2013-03-26 15:14:00,
2013-03-26 10:19:00,32.5,32.5,29.13,WNW,300,5.0,9.0,100,0.00,,OVC055,0.00,VWS V14.01,2013-03-26 15:19:00,
2013-03-26 10:24:00,32.6,32.6,29.13,NNW,327,8.0,8.0,100,0.00,,OVC055,0.00,VWS V14.01,2013-03-26 15:24:00,
2013-03-26 10:29:00,32.8,32.8,29.13,North,353,8.0,10.0,100,0.00,,OVC055,0.00,VWS V14.01,2013-03-26 15:29:00,
2013-03-26 10:34:00,33.0,33.0,29.13,NNW,331,11.0,11.0,100,0.00,,OVC055,0.00,VWS V14.01,2013-03-26 15:34:00,
2013-03-26 10:39:00,33.1,33.1,29.13,North,10,6.0,11.0,100,0.00,,BKN060,0.00,VWS V14.01,2013-03-26 15:39:00,
2013-03-26 10:44:00,33.4,33.4,29.14,North,356,4.0,10.0,100,0.00,,BKN060,0.00,VWS V14.01,2013-03-26 15:44:00,
2013-03-26 10:49:00,33.7,33.7,29.14,North,0,3.0,10.0,100,0.00,,BKN060,0.00,VWS V14.01,2013-03-26 15:49:00,
2013-03-26 10:54:00,33.9,33.9,29.14,North,11,3.0,11.0,100,0.00,,BKN060,0.00,VWS V14.01,2013-03-26 15:54:00,
2013-03-26 10:59:00,34.0,34.0,29.14,North,349,8.0,11.0,100,0.00,,BKN060,0.00,VWS V14.01,2013-03-26 15:59:00,
2013-03-26 11:04:00,34.3,34.3,29.14,NW,322,7.0,9.0,100,0.00,,BKN060,0.00,VWS V14.01,2013-03-26 16:04:00,
2013-03-26 11:09:00,34.4,34.4,29.13,North,4,6.0,9.0,100,0.00,,BKN060,0.00,VWS V14.01,2013-03-26 16:09:00,
2013-03-26 11:14:00,34.5,34.5,29.13,North,9,5.0,8.0,100,0.00,,BKN060,0.00,VWS V14.01,2013-03-26 16:14:00,
2013-03-26 11:19:00,34.7,34.7,29.13,NNW,327,3.0,9.0,100,0.00,,BKN060,0.00,VWS V14.01,2013-03-26 16:19:00,
2013-03-26 11:24:00,34.8,34.8,29.13,North,9,4.0,10.0,100,0.00,,BKN060,0.00,VWS V14.01,2013-03-26 16:24:00,
2013-03-26 11:29:00,34.9,34.9,29.13,NNW,341,8.0,10.0,100,0.00,,BKN060,0.00,VWS V14.01,2013-03-26 16:29:00,
2013-03-26 11:34:00,34.7,34.7,29.13,WNW,303,10.0,13.0,100,0.00,,BKN060,0.00,VWS V14.01,2013-03-26 16:34:00,
2013-03-26 11:39:00,34.7,34.7,29.13,NW,310,9.0,13.0,100,0.00,,BKN060,0.00,VWS V14.01,2013-03-26 16:39:00,
2013-03-26 11:44:00,34.6,34.6,29.13,North,4,2.0,12.0,100,0.00,,BKN060,0.00,VWS V14.01,2013-03-26 16:44:00,
2013-03-26 11:49:00,34.7,34.7,29.13,NNW,333,12.0,12.0,100,0.00,,BKN060,0.00,VWS V14.01,2013-03-26 16:49:00,
2013-03-26 11:54:00,34.8,34.8,29.13,North,349,6.0,13.0,100,0.00,,BKN060,0.00,VWS V14.01,2013-03-26 16:54:00,
2013-03-26 11:59:00,34.8,34.8,29.13,North,357,10.0,13.0,100,0.00,,BKN060,0.00,VWS V14.01,2013-03-26 16:59:00,
2013-03-26 12:04:00,34.9,34.9,29.13,North,1,7.0,11.0,100,0.00,,BKN060,0.00,VWS V14.01,2013-03-26 17:04:00,
2013-03-26 12:09:00,35.1,35.1,29.13,North,355,7.0,12.0,100,0.00,,BKN060,0.00,VWS V14.01,2013-03-26 17:09:00,
2013-03-26 12:14:00,35.3,35.3,29.13,NNW,328,6.0,11.0,100,0.00,,BKN060,0.00,VWS V14.01,2013-03-26 17:14:00,
2013-03-26 12:19:00,35.4,35.4,29.13,NW,305,9.0,14.0,100,0.00,,BKN060,0.00,VWS V14.01,2013-03-26 17:19:00,
2013-03-26 12:24:00,35.5,35.5,29.13,NNE,12,3.0,12.0,100,0.00,,BKN060,0.00,VWS V14.01,2013-03-26 17:24:00,
2013-03-26 12:29:00,35.4,35.4,29.13,NW,324,6.0,16.0,100,0.00,,BKN060,0.00,VWS V14.01,2013-03-26 17:29:00,
2013-03-26 12:34:00,35.5,35.5,29.13,North,5,7.0,12.0,100,0.00,,BKN060,0.00,VWS V14.01,2013-03-26 17:34:00,
2013-03-26 12:39:00,35.7,35.7,29.13,NNW,340,7.0,13.0,100,0.00,,BKN065,0.00,VWS V14.01,2013-03-26 17:39:00,
2013-03-26 12:44:00,35.9,35.9,29.13,NNW,336,7.0,15.0,100,0.00,,BKN065,0.00,VWS V14.01,2013-03-26 17:44:00,
2013-03-26 12:49:00,36.1,36.1,29.13,WNW,299,12.0,15.0,100,0.00,,BKN065,0.00,VWS V14.01,2013-03-26 17:49:00,
2013-03-26 12:54:00,36.3,36.3,29.13,NNE,13,10.0,14.0,100,0.00,,BKN065,0.00,VWS V14.01,2013-03-26 17:54:00,
2013-03-26 12:59:00,36.6,36.6,29.13,North,8,4.0,14.0,100,0.00,,BKN065,0.00,VWS V14.01,2013-03-26 17:59:00,
2013-03-26 13:04:00,36.8,36.8,29.13,North,3,6.0,13.0,100,0.00,,BKN065,0.00,VWS V14.01,2013-03-26 18:04:00,
2013-03-26 13:09:00,37.0,37.0,29.13,NNW,334,8.0,15.0,100,0.00,,BKN065,0.00,VWS V14.01,2013-03-26 18:09:00,
2013-03-26 13:14:00,37.2,37.2,29.13,North,0,7.0,10.0,100,0.00,,BKN065,0.00,VWS V14.01,2013-03-26 18:14:00,
2013-03-26 13:19:00,37.3,37.3,29.13,NNE,12,4.0,14.0,100,0.00,,BKN065,0.00,VWS V14.01,2013-03-26 18:19:00,
2013-03-26 13:24:00,37.3,37.3,29.13,North,351,6.0,11.0,100,0.00,,BKN065,0.00,VWS V14.01,2013-03-26 18:24:00,
2013-03-26 13:29:00,37.2,37.2,29.13,NW,308,7.0,11.0,100,0.00,,BKN065,0.00,VWS V14.01,2013-03-26 18:29:00,
2013-03-26 13:34:00,37.1,37.1,29.13,NW,306,5.0,13.0,100,0.00,,BKN065,0.00,VWS V14.01,2013-03-26 18:34:00,
2013-03-26 13:39:00,37.0,37.0,29.13,NNW,334,5.0,13.0,100,0.00,,BKN065,0.00,VWS V14.01,2013-03-26 18:39:00,
2013-03-26 13:44:00,37.2,37.2,29.12,North,357,1.0,10.0,100,0.00,,BKN065,0.00,VWS V14.01,2013-03-26 18:44:00,
2013-03-26 13:49:00,37.6,37.6,29.12,NW,323,7.0,11.0,100,0.00,,BKN065,0.00,VWS V14.01,2013-03-26 18:49:00,
2013-03-26 13:54:00,37.8,37.8,29.12,NNE,12,6.0,13.0,100,0.00,,BKN065,0.00,VWS V14.01,2013-03-26 18:54:00,
2013-03-26 13:59:00,38.0,38.0,29.12,NW,326,8.0,13.0,100,0.00,,BKN065,0.00,VWS V14.01,2013-03-26 18:59:00,
2013-03-26 14:04:00,38.1,38.1,29.12,NNE,12,7.0,13.0,100,0.00,,BKN065,0.00,VWS V14.01,2013-03-26 19:04:00,
2013-03-26 14:09:00,38.3,38.3,29.12,NNW,329,10.0,14.0,100,0.00,,BKN065,0.00,VWS V14.01,2013-03-26 19:09:00,
2013-03-26 14:14:00,38.2,38.2,29.12,NW,308,6.0,14.0,100,0.00,,BKN065,0.00,VWS V14.01,2013-03-26 19:14:00,
2013-03-26 14:19:00,38.3,38.3,29.12,North,3,1.0,14.0,100,0.00,,BKN065,0.00,VWS V14.01,2013-03-26 19:19:00,
2013-03-26 14:24:00,38.4,38.4,29.12,West,275,7.0,13.0,100,0.00,,BKN065,0.01,VWS V14.01,2013-03-26 19:24:00,
2013-03-26 14:29:00,38.3,38.3,29.12,North,355,10.0,16.0,100,0.00,,BKN065,0.00,VWS V14.01,2013-03-26 19:29:00,
2013-03-26 14:34:00,38.3,38.3,29.12,WNW,291,8.0,13.0,100,0.00,,BKN065,0.00,VWS V14.01,2013-03-26 19:34:00,
2013-03-26 14:39:00,38.1,38.1,29.12,NW,326,10.0,13.0,100,0.00,,BKN070,0.00,VWS V14.01,2013-03-26 19:39:00,
2013-03-26 14:44:00,38.1,38.1,29.12,NW,326,12.0,16.0,100,0.00,,BKN070,0.00,VWS V14.01,2013-03-26 19:44:00,
2013-03-26 14:49:00,38.6,38.6,29.12,North,354,4.0,16.0,100,0.00,,BKN070,0.00,VWS V14.01,2013-03-26 19:49:00,
2013-03-26 14:54:00,38.7,38.7,29.12,NNW,333,9.0,14.0,100,0.00,,BKN070,0.00,VWS V14.01,2013-03-26 19:54:00,
2013-03-26 14:59:00,38.7,38.7,29.12,NW,310,8.0,14.0,100,0.00,,BKN070,0.00,VWS V14.01,2013-03-26 19:59:00,
2013-03-26 15:04:00,38.4,38.4,29.12,NW,310,10.0,11.0,100,0.00,,BKN070,0.00,VWS V14.01,2013-03-26 20:04:00,
2013-03-26 15:09:00,38.3,38.3,29.12,NW,319,8.0,12.0,100,0.00,,BKN070,0.00,VWS V14.01,2013-03-26 20:09:00,
2013-03-26 15:14:00,38.4,38.4,29.12,NW,322,5.0,10.0,100,0.00,,BKN070,0.00,VWS V14.01,2013-03-26 20:14:00,
2013-03-26 15:19:00,38.5,38.5,29.13,NNW,330,7.0,12.0,100,0.00,,BKN070,0.00,VWS V14.01,2013-03-26 20:19:00,
2013-03-26 15:24:00,38.3,38.3,29.13,NW,319,7.0,13.0,100,0.00,,BKN070,0.00,VWS V14.01,2013-03-26 20:24:00,
2013-03-26 15:29:00,38.4,38.4,29.12,NNW,334,5.0,13.0,100,0.00,,BKN070,0.00,VWS V14.01,2013-03-26 20:29:00,
2013-03-26 15:34:00,38.4,38.4,29.12,NW,324,10.0,10.0,100,0.00,,BKN070,0.00,VWS V14.01,2013-03-26 20:34:00,
2013-03-26 15:39:00,38.5,38.5,29.13,North,1,5.0,11.0,100,0.00,,SCT029,0.00,VWS V14.01,2013-03-26 20:39:00,
2013-03-26 15:44:00,38.6,38.6,29.13,NNW,341,5.0,8.0,100,0.00,,SCT029,0.00,VWS V14.01,2013-03-26 20:44:00,
2013-03-26 15:49:00,38.6,38.6,29.12,WNW,302,6.0,10.0,100,0.00,,SCT029,0.00,VWS V14.01,2013-03-26 20:49:00,
2013-03-26 15:54:00,38.5,38.5,29.12,NNW,334,4.0,10.0,100,0.00,,SCT029,0.00,VWS V14.01,2013-03-26 20:54:00,
2013-03-26 15:59:00,38.7,38.7,29.12,NW,323,5.0,10.0,100,0.00,,SCT029,0.00,VWS V14.01,2013-03-26 20:59:00,
2013-03-26 16:04:00,38.7,38.7,29.12,NNW,331,7.0,10.0,100,0.00,,SCT029,0.00,VWS V14.01,2013-03-26 21:04:00,
2013-03-26 16:09:00,38.9,38.9,29.12,NNW,333,8.0,11.0,100,0.00,,SCT029,0.00,VWS V14.01,2013-03-26 21:09:00,
2013-03-26 16:14:00,38.8,38.8,29.12,North,350,6.0,10.0,100,0.00,,SCT029,0.00,VWS V14.01,2013-03-26 21:14:00,
2013-03-26 16:19:00,38.9,38.9,29.12,NW,318,6.0,10.0,100,0.00,,SCT029,0.00,VWS V14.01,2013-03-26 21:19:00,
2013-03-26 16:24:00,38.8,38.8,29.12,North,2,6.0,9.0,100,0.00,,SCT029,0.00,VWS V14.01,2013-03-26 21:24:00,
2013-03-26 16:29:00,38.8,38.8,29.12,WNW,300,4.0,9.0,100,0.00,,SCT029,0.00,VWS V14.01,2013-03-26 21:29:00,
2013-03-26 16:34:00,38.6,38.6,29.12,NNW,327,7.0,9.0,100,0.00,,SCT029,0.00,VWS V14.01,2013-03-26 21:34:00,
2013-03-26 16:39:00,38.4,38.4,29.12,NW,322,6.0,9.0,100,0.00,,FEW031,0.00,VWS V14.01,2013-03-26 21:39:00,
2013-03-26 16:44:00,38.3,38.3,29.12,North,8,2.0,9.0,100,0.00,,FEW031,0.00,VWS V14.01,2013-03-26 21:44:00,
2013-03-26 16:49:00,38.3,38.3,29.13,NNW,333,10.0,10.0,100,0.00,,FEW031,0.00,VWS V14.01,2013-03-26 21:49:00,
2013-03-26 16:54:00,38.2,38.2,29.13,NNW,328,6.0,9.0,100,0.00,,FEW031,0.00,VWS V14.01,2013-03-26 21:54:00,
2013-03-26 16:59:00,38.2,38.2,29.13,North,359,5.0,9.0,100,0.00,,FEW031,0.00,VWS V14.01,2013-03-26 21:59:00,
2013-03-26 17:04:00,38.2,38.2,29.12,NNW,334,9.0,11.0,100,0.00,,FEW031,0.00,VWS V14.01,2013-03-26 22:04:00,
2013-03-26 17:09:00,38.0,38.0,29.13,North,353,6.0,11.0,100,0.00,,FEW031,0.00,VWS V14.01,2013-03-26 22:09:00,
2013-03-26 17:14:00,37.7,37.7,29.13,North,358,4.0,13.0,100,0.00,,FEW031,0.00,VWS V14.01,2013-03-26 22:14:00,
2013-03-26 17:19:00,37.6,37.6,29.13,North,357,5.0,13.0,100,0.00,,FEW031,0.00,VWS V14.01,2013-03-26 22:19:00,
2013-03-26 17:24:00,37.5,37.5,29.13,NNW,337,5.0,8.0,100,0.00,,FEW031,0.01,VWS V14.01,2013-03-26 22:24:00,
2013-03-26 17:29:00,37.4,37.4,29.13,North,357,5.0,8.0,100,0.00,,FEW031,0.00,VWS V14.01,2013-03-26 22:29:00,
2013-03-26 17:34:00,37.4,37.4,29.13,NNE,16,3.0,10.0,100,0.00,,FEW031,0.00,VWS V14.01,2013-03-26 22:34:00,
2013-03-26 17:39:00,37.4,37.4,29.14,North,5,4.0,10.0,100,0.00,,FEW030,0.00,VWS V14.01,2013-03-26 22:39:00,
2013-03-26 17:44:00,37.3,37.3,29.14,North,359,3.0,5.0,100,0.00,,FEW030,0.00,VWS V14.01,2013-03-26 22:44:00,
2013-03-26 17:49:00,37.3,37.3,29.13,NNW,342,3.0,6.0,100,0.00,,FEW030,0.00,VWS V14.01,2013-03-26 22:49:00,
2013-03-26 17:54:00,37.3,37.3,29.14,NNW,346,8.0,10.0,100,0.00,,FEW030,0.00,VWS V14.01,2013-03-26 22:54:00,
2013-03-26 17:59:00,37.2,37.2,29.14,North,0,5.0,11.0,100,0.00,,FEW030,0.00,VWS V14.01,2013-03-26 22:59:00,
2013-03-26 18:04:00,37.1,37.1,29.14,NW,315,7.0,11.0,100,0.00,,FEW030,0.00,VWS V14.01,2013-03-26 23:04:00,
2013-03-26 18:09:00,37.0,37.0,29.14,NNW,346,8.0,11.0,100,0.00,,FEW030,0.00,VWS V14.01,2013-03-26 23:09:00,
2013-03-26 18:14:00,36.8,36.8,29.14,North,2,5.0,10.0,100,0.00,,FEW030,0.00,VWS V14.01,2013-03-26 23:14:00,
2013-03-26 18:19:00,36.8,36.8,29.14,North,353,4.0,10.0,100,0.00,,FEW030,0.00,VWS V14.01,2013-03-26 23:19:00,
2013-03-26 18:24:00,36.7,36.7,29.14,NNW,348,2.0,7.0,100,0.00,,FEW030,0.00,VWS V14.01,2013-03-26 23:24:00,
2013-03-26 18:29:00,36.7,36.7,29.15,NNW,347,2.0,7.0,100,0.00,,FEW030,0.00,VWS V14.01,2013-03-26 23:29:00,
2013-03-26 18:34:00,36.6,36.6,29.15,North,357,1.0,4.0,100,0.00,,FEW030,0.00,VWS V14.01,2013-03-26 23:34:00,
2013-03-26 18:39:00,36.4,36.4,29.15,WNW,300,4.0,5.0,100,0.00,,FEW030,0.00,VWS V14.01,2013-03-26 23:39:00,
2013-03-26 18:44:00,36.3,36.3,29.15,NW,310,3.0,3.0,100,0.00,,FEW030,0.00,VWS V14.01,2013-03-26 23:44:00,
2013-03-26 18:49:00,36.3,36.3,29.15,NW,311,2.0,3.0,100,0.00,,FEW030,0.00,VWS V14.01,2013-03-26 23:49:00,
2013-03-26 18:54:00,36.2,36.2,29.15,NNW,334,2.0,4.0,100,0.00,,FEW030,0.00,VWS V14.01,2013-03-26 23:54:00,
2013-03-26 18:59:00,36.1,36.1,29.15,NNW,337,2.0,5.0,100,0.00,,FEW030,0.00,VWS V14.01,2013-03-26 23:59:00,
2013-03-26 19:04:00,35.9,35.9,29.15,NNW,336,2.0,4.0,100,0.00,,FEW030,0.00,VWS V14.01,2013-03-27 00:04:00,
2013-03-26 19:09:00,35.8,35.8,29.15,NW,309,3.0,4.0,100,0.00,,BKN060,0.00,VWS V14.01,2013-03-27 00:09:00,
2013-03-26 19:14:00,35.7,35.7,29.15,NW,310,2.0,4.0,100,0.00,,BKN060,0.00,VWS V14.01,2013-03-27 00:14:00,
2013-03-26 19:19:00,35.6,35.6,29.15,NW,307,3.0,4.0,100,0.00,,BKN060,0.00,VWS V14.01,2013-03-27 00:19:00,
2013-03-26 19:24:00,35.5,35.5,29.15,NW,312,1.0,4.0,100,0.00,,BKN060,0.00,VWS V14.01,2013-03-27 00:24:00,
2013-03-26 19:29:00,35.4,35.4,29.15,NW,314,0.0,4.0,100,0.00,,BKN060,0.00,VWS V14.01,2013-03-27 00:29:00,
2013-03-26 19:34:00,35.3,35.3,29.15,NW,314,1.0,3.0,100,0.00,,BKN060,0.00,VWS V14.01,2013-03-27 00:34:00,
2013-03-26 19:39:00,35.2,35.2,29.15,WNW,288,2.0,4.0,100,0.00,,BKN060,0.00,VWS V14.01,2013-03-27 00:39:00,
2013-03-26 19:44:00,35.1,35.1,29.16,WNW,296,2.0,3.0,100,0.00,,BKN060,0.00,VWS V14.01,2013-03-27 00:44:00,
2013-03-26 19:49:00,35.1,35.1,29.16,NW,310,0.0,4.0,100,0.00,,BKN060,0.00,VWS V14.01,2013-03-27 00:49:00,
2013-03-26 19:54:00,35.0,35.0,29.16,NW,308,4.0,4.0,100,0.00,,BKN060,0.00,VWS V14.01,2013-03-27 00:54:00,
2013-03-26 19:59:00,34.9,34.9,29.16,NW,308,2.0,4.0,100,0.00,,BKN060,0.00,VWS V14.01,2013-03-27 00:59:00,
2013-03-26 20:04:00,34.9,34.9,29.16,WNW,295,1.0,4.0,100,0.00,,BKN060,0.00,VWS V14.01,2013-03-27 01:04:00,
2013-03-26 20:09:00,34.8,34.8,29.16,WNW,297,2.0,4.0,100,0.00,,BKN060,0.00,VWS V14.01,2013-03-27 01:09:00,
2013-03-26 20:14:00,34.7,34.7,29.16,NW,304,1.0,4.0,100,0.00,,BKN060,0.00,VWS V14.01,2013-03-27 01:14:00,
2013-03-26 20:19:00,34.7,34.7,29.16,NW,319,2.0,4.0,100,0.00,,BKN060,0.00,VWS V14.01,2013-03-27 01:19:00,
2013-03-26 20:24:00,34.6,34.6,29.16,NNW,329,3.0,5.0,100,0.00,,BKN060,0.00,VWS V14.01,2013-03-27 01:24:00,
2013-03-26 20:29:00,34.6,34.6,29.16,NW,316,3.0,5.0,100,0.00,,BKN060,0.01,VWS V14.01,2013-03-27 01:29:00,
2013-03-26 20:34:00,34.5,34.5,29.16,NW,322,2.0,4.0,100,0.00,,BKN060,0.00,VWS V14.01,2013-03-27 01:34:00,
2013-03-26 20:39:00,34.4,34.4,29.16,NNW,332,2.0,5.0,100,0.00,,OVC065,0.00,VWS V14.01,2013-03-27 01:39:00,
2013-03-26 20:44:00,34.4,34.4,29.16,NNW,332,3.0,4.0,100,0.00,,OVC065,0.00,VWS V14.01,2013-03-27 01:44:00,
2013-03-26 20:49:00,34.3,34.3,29.16,WNW,299,2.0,4.0,100,0.00,,OVC065,0.00,VWS V14.01,2013-03-27 01:49:00,
2013-03-26 20:54:00,34.3,34.3,29.16,WNW,297,2.0,4.0,100,0.00,,OVC065,0.00,VWS V14.01,2013-03-27 01:54:00,
2013-03-26 20:59:00,34.2,34.2,29.17,WNW,299,2.0,4.0,100,0.00,,OVC065,0.00,VWS V14.01,2013-03-27 01:59:00,
2013-03-26 21:04:00,34.2,34.2,29.17,NW,324,3.0,3.0,100,0.00,,OVC065,0.00,VWS V14.01,2013-03-27 02:04:00,
2013-03-26 21:09:00,34.1,34.1,29.17,NW,316,3.0,4.0,100,0.00,,OVC065,0.00,VWS V14.01,2013-03-27 02:09:00,
2013-03-26 21:14:00,34.1,34.1,29.17,NW,311,3.0,4.0,100,0.00,,OVC065,0.00,VWS V14.01,2013-03-27 02:14:00,
2013-03-26 21:19:00,34.1,34.1,29.16,NW,319,3.0,4.0,100,0.00,,OVC065,0.00,VWS V14.01,2013-03-27 02:19:00,
2013-03-26 21:24:00,34.0,34.0,29.17,NNW,335,2.0,4.0,100,0.00,,OVC065,0.00,VWS V14.01,2013-03-27 02:24:00,
2013-03-26 21:29:00,34.0,34.0,29.17,NW,323,3.0,4.0,100,0.00,,OVC065,0.00,VWS V14.01,2013-03-27 02:29:00,
2013-03-26 21:34:00,34.0,34.0,29.17,NW,323,2.0,3.0,100,0.00,,OVC065,0.00,VWS V14.01,2013-03-27 02:34:00,
2013-03-26 21:39:00,33.9,33.9,29.17,NW,323,2.0,3.0,100,0.00,,OVC065,0.00,VWS V14.01,2013-03-27 02:39:00,
2013-03-26 21:44:00,33.9,33.9,29.17,NW,323,1.0,3.0,100,0.00,,OVC065,0.00,VWS V14.01,2013-03-27 02:44:00,
2013-03-26 21:49:00,33.9,33.9,29.17,NW,323,2.0,3.0,100,0.00,,OVC065,0.00,VWS V14.01,2013-03-27 02:49:00,
2013-03-26 21:54:00,33.8,33.8,29.17,NW,323,1.0,3.0,100,0.00,,OVC065,0.00,VWS V14.01,2013-03-27 02:54:00,
2013-03-26 21:59:00,33.8,33.8,29.17,NW,323,2.0,3.0,100,0.00,,OVC065,0.00,VWS V14.01,2013-03-27 02:59:00,
2013-03-26 22:04:00,33.7,33.7,29.17,NW,323,1.0,3.0,100,0.00,,OVC065,0.00,VWS V14.01,2013-03-27 03:04:00,
2013-03-26 22:09:00,33.7,33.7,29.17,NW,323,1.0,3.0,100,0.00,,OVC065,0.00,VWS V14.01,2013-03-27 03:09:00,
2013-03-26 22:14:00,33.7,33.7,29.17,NW,323,1.0,3.0,100,0.00,,OVC065,0.00,VWS V14.01,2013-03-27 03:14:00,
2013-03-26 22:19:00,33.7,33.7,29.17,NW,323,1.0,3.0,100,0.00,,OVC065,0.00,VWS V14.01,2013-03-27 03:19:00,
2013-03-26 22:24:00,33.6,33.6,29.17,NW,323,1.0,2.0,100,0.00,,OVC065,0.00,VWS V14.01,2013-03-27 03:24:00,
2013-03-26 22:29:00,33.6,33.6,29.17,NW,323,1.0,3.0,100,0.00,,OVC065,0.00,VWS V14.01,2013-03-27 03:29:00,
2013-03-26 22:34:00,33.6,33.6,29.17,NW,323,0.0,2.0,100,0.00,,OVC065,0.00,VWS V14.01,2013-03-27 03:34:00,
2013-03-26 22:39:00,33.6,33.6,29.17,NW,323,2.0,3.0,100,0.00,,OVC070,0.00,VWS V14.01,2013-03-27 03:39:00,
2013-03-26 22:44:00,33.5,33.5,29.18,West,271,1.0,3.0,100,0.00,,OVC070,0.00,VWS V14.01,2013-03-27 03:44:00,
2013-03-26 22:49:00,33.5,33.5,29.17,West,259,2.0,4.0,100,0.00,,OVC070,0.00,VWS V14.01,2013-03-27 03:49:00,
2013-03-26 22:54:00,33.5,33.5,29.18,West,273,2.0,4.0,100,0.00,,OVC070,0.00,VWS V14.01,2013-03-27 03:54:00,
2013-03-26 22:59:00,33.5,33.5,29.18,West,273,2.0,4.0,100,0.00,,OVC070,0.00,VWS V14.01,2013-03-27 03:59:00,
2013-03-26 23:00:00,33.5,33.5,29.18,West,273,3.0,4.0,100,0.00,,OVC070,0.00,VWS V14.01,2013-03-27 04:00:00,
2013-03-26 23:05:00,33.5,33.5,29.18,West,271,3.0,4.0,100,0.00,,OVC070,0.00,VWS V14.01,2013-03-27 04:05:00,
2013-03-26 23:10:00,33.5,33.5,29.18,West,274,2.0,2.0,100,0.00,,OVC070,0.00,VWS V14.01,2013-03-27 04:10:00,
2013-03-26 23:15:00,33.4,33.4,29.18,West,272,0.0,3.0,100,0.00,,OVC070,0.00,VWS V14.01,2013-03-27 04:15:00,
2013-03-26 23:20:00,33.4,33.4,29.18,West,267,1.0,3.0,100,0.00,,OVC070,0.00,VWS V14.01,2013-03-27 04:20:00,
2013-03-26 23:25:00,33.3,33.3,29.18,West,264,0.0,3.0,100,0.00,,OVC070,0.00,VWS V14.01,2013-03-27 04:25:00,
2013-03-26 23:30:00,33.2,33.2,29.18,West,259,1.0,3.0,100,0.00,,OVC070,0.00,VWS V14.01,2013-03-27 04:30:00,
2013-03-26 23:35:00,33.2,33.2,29.18,WSW,255,2.0,5.0,100,0.00,,OVC070,0.00,VWS V14.01,2013-03-27 04:35:00,
2013-03-26 23:40:00,33.2,33.2,29.18,West,263,3.0,3.0,100,0.00,,OVC070,0.00,VWS V14.01,2013-03-27 04:40:00,
2013-03-26 23:45:00,33.1,33.1,29.18,WSW,252,2.0,5.0,100,0.00,,OVC070,0.00,VWS V14.01,2013-03-27 04:45:00,
2013-03-26 23:50:00,33.1,33.1,29.18,WSW,258,4.0,4.0,100,0.00,,OVC070,0.00,VWS V14.01,2013-03-27 04:50:00,
2013-03-26 23:55:00,33.1,33.1,29.18,West,267,2.0,5.0,100,0.00,,OVC070,0.00,VWS V14.01,2013-03-27 04:55:00,